This is the latest recevied weather packets stored in our database for station/object DL1MMS-10. If no packets are shown the sender has not sent any weather packets the latest 10 day(s).
| Time | Temp. | Humidity | Pressure | Rain* | Wind** | Luminosity | Snow |
|---|---|---|---|---|---|---|---|
| 1777457379 | 20° C | 40% | 1020.5 hPa | 0 mm | - | - | - |
| 1777457078 | 17.22° C | 43% | 1020.4 hPa | 0 mm | - | - | - |
| 1777456778 | 16.11° C | 44% | 1020.5 hPa | 0 mm | - | - | - |
| 1777456478 | 15.56° C | 45% | 1020.5 hPa | 0 mm | - | - | - |
| 1777456178 | 15.56° C | 46% | 1020.5 hPa | 0 mm | - | - | - |
| 1777455877 | 15° C | 47% | 1020.4 hPa | 0 mm | - | - | - |
| 1777455577 | 15° C | 47% | 1020.4 hPa | 0 mm | - | - | - |
| 1777455277 | 14.44° C | 47% | 1020.4 hPa | 0 mm | - | - | - |
| 1777454976 | 14.44° C | 47% | 1020.5 hPa | 0 mm | - | - | - |
| 1777454676 | 14.44° C | 47% | 1020.6 hPa | 0 mm | - | - | - |
| 1777454376 | 14.44° C | 48% | 1020.6 hPa | 0 mm | - | - | - |
| 1777454075 | 13.89° C | 48% | 1020.5 hPa | 0 mm | - | - | - |
| 1777453775 | 13.89° C | 48% | 1020.4 hPa | 0 mm | - | - | - |
| 1777453475 | 13.89° C | 48% | 1020.4 hPa | 0 mm | - | - | - |
| 1777453175 | 13.89° C | 48% | 1020.3 hPa | 0 mm | - | - | - |
| 1777452874 | 13.89° C | 50% | 1020.4 hPa | 0 mm | - | - | - |
| 1777452574 | 13.89° C | 50% | 1020.3 hPa | 0 mm | - | - | - |
| 1777452274 | 13.89° C | 50% | 1020.4 hPa | 0 mm | - | - | - |
| 1777451973 | 13.89° C | 50% | 1020.5 hPa | 0 mm | - | - | - |
| 1777451673 | 13.33° C | 51% | 1020.3 hPa | 0 mm | - | - | - |
| 1777451373 | 13.33° C | 52% | 1020.4 hPa | 0 mm | - | - | - |
| 1777451073 | 12.78° C | 52% | 1020.5 hPa | 0 mm | - | - | - |
| 1777450772 | 12.78° C | 53% | 1020.5 hPa | 0 mm | - | - | - |
| 1777450472 | 12.22° C | 53% | 1020.2 hPa | 0 mm | - | - | - |
| 1777450172 | 12.22° C | 53% | 1020.4 hPa | 0 mm | - | - | - |
* Rain latest hour (hover to see other rain measurements)
** Current wind speed in m/s (hover to see current wind gust speed)